Regional Weather Roundup
Issued by NWS

Home | Current Version | Previous Version | Text Only | Print | Product List | Glossary Off
Versions: 1 2 3 4 5 6 7 8 9 10 11 12 13 14 15 16 17 18 19 20 21 22 23 24 25 26 27 28 29 30 31 32 33 34 35 36 37 38 39 40 41 42 43 44 45 46 47 48 49 50

000
ASUS43 KDTX 050710
RWRMI
MICHIGAN HOURLY REGIONAL WEATHER ROUNDUP
NATIONAL WEATHER SERVICE DETROIT/PONTIAC MI
300 AM EDT SAT SEP 05 2015

NOTE: "FAIR" INDICATES FEW OR NO CLOUDS BELOW 12,000 FEET WITH NO
SIGNIFICANT WEATHER AND/OR OBSTRUCTION TO VISIBILITY.

MIZ047>049-052>055-059>063-066>070-074>076-081>083-050800-
SOUTHEAST LOWER MICHIGAN

CITY           SKY/WX    TMP DP  RH WIND       PRES   REMARKS
ADRIAN         CLOUDY    68  67  96 CALM      30.09S
ALMA           FOG       64  64 100 CALM      30.08S VSB 1/4
ANN ARBOR      FOG       67  66  97 CALM      30.08S VSB 1/4
BAD AXE        CLEAR     67  67  98 CALM      30.08F FOG
CARO           CLOUDY    69  68  98 CALM      30.06F
DETROIT CITY   CLEAR     69  66  90 CALM      30.07S
DETROIT        CLOUDY    70  69  97 SW6       30.08S FOG
FLINT          MOCLDY    71  67  87 SW5       30.07S FOG
GROSSE ILE     CLEAR     70  66  88 W6        30.06S
HILLSDALE      CLOUDY    71  71 100 SW6       30.10S
HOWELL         FOG       68  68  99 CALM      30.08F VSB 1/4

CITY           SKY/WX    TMP DP  RH WIND       PRES   REMARKS
JACKSON        CLOUDY    70  68  93 S3        30.08S
LAMBERTVILLE   PTCLDY    70  66  88 CALM      30.08S
LANSING        MOCLDY    66  64  93 CALM      30.08S
LAPEER         FAIR      64  64 100 CALM      30.08R FOG
MASON          MOCLDY    65  63  92 CALM      30.08S FOG
MONROE         CLEAR     68  66  93 NW3       30.06F
MT. CLEMENS    PTCLDY    66  66 100 SE5       30.06R
PONTIAC        CLOUDY    70  69  97 VRB6        N/A  FOG
PORT HOPE        N/A     69  63  81 VRB6      30.07S
PORT HURON     CLOUDY    70  70 100 SE5       30.08S FOG
TRI CITIES     FOG       68  66  93 SE3       30.07S VSB 1/4
MIDLAND        FOG       68  67  98 CALM      30.05F VSB 1/4
TROY           CLOUDY    72  70  95 SW5       30.09S FOG
SAGINAW HB       N/A     64  64 100 CALM      30.06S FOG
$$
MIZ043>046-050>051-056>058-064>065-071>073-077>080-050800-
SOUTHWEST LOWER MICHIGAN

CITY           SKY/WX    TMP DP  RH WIND       PRES   REMARKS
BATTLE CREEK   CLOUDY    70  68  93 SW5       30.09R
BENTON HARBOR  PTCLDY    66  65  96 CALM      30.05F FOG
BIG RAPIDS     FOG       67  67  98 CALM      30.08R VSB 1/4
COLDWATER      CLOUDY    69  67  93 SW6       30.09S
FREMONT        FOG       63  63 100 CALM      30.07S VSB 1/4
HOLLAND        PTCLDY    64  63  96 CALM      30.07F FOG
GRAND RAPIDS   FOG       65  64  97 CALM      30.07F VSB 1/4
IONIA          FOG       65  65 100 CALM      30.07S VSB 1/2
KALAMAZOO      MOCLDY    69  66  90 SW6       30.08S
LUDINGTON      FOG       71  69  93 SW3       30.07S VSB 1/4
MARSHALL       CLOUDY    71  69  95 SW3       30.08S
MOUNT PLEASANT FOG       71  69  94 CALM      30.06F VSB 1/4
MUSKEGON       FOG       64  62  93 CALM      30.07S VSB 1
SOUTH HAVEN    MOCLDY    66  64  95 CALM      30.06F FOG
$$
MIZ016>042-050800-
NORTHERN LOWER MICHIGAN

CITY           SKY/WX    TMP DP  RH WIND       PRES   REMARKS
ALPENA         MOCLDY    69  63  81 SE7       30.08S
BEAVER ISLAND  FOG       65  65  97 SE3       30.07S VSB 1
BELLAIRE       FOG       65  64  97 CALM      30.05F VSB 1
CADILLAC       FOG       66  65  99 CALM      30.08S VSB 1/2
CHARLEVOIX     PTCLDY    68  68  98 CALM      30.08S FOG
FRANKFORT      FOG       65  65 100 CALM      30.05S VSB 1/4
GAYLORD        CLOUDY    68  68 100 CALM      30.08F FOG
GRAYLING       CLOUDY    67  67  98 CALM      30.09S FOG
HARBOR SPRINGS PTCLDY    68  65  91 NE8       30.06S
HOUGHTON LAKE  PTCLDY    68  66  93 SE3       30.08S FOG
MANISTEE       CLOUDY    64  61  88 CALM      30.07R VSB 1/2
OSCODA         CLEAR     70  68  95 S3        30.07S
PELLSTON       MOCLDY    64  63  96 CALM      30.07F
ROGERS CITY    PTCLDY    69  63  80 SE5       30.09F
TRAVERSE CITY  CLOUDY    69  67  93 CALM      30.04S FOG
$$
MIZ007>008-015-050800-
EASTERN UPPER MICHIGAN

CITY           SKY/WX    TMP DP  RH WIND       PRES   REMARKS
KINROSS        MOCLDY    70  63  78 E5        30.10R
MACKINAC ISLAN PTCLDY    65  63  93 E7        30.07F
NEWBERRY       CLEAR     64  62  96 CALM      30.08S
S. S. MARIE    CLEAR     68  62  81 E5        30.09S
MUNISING         N/A     68  65  90 NW3       30.06R
$$
MIZ004>006-011>014-085-050800-
CENTRAL UPPER MICHIGAN

CITY           SKY/WX    TMP DP  RH WIND       PRES   REMARKS
MANISTIQUE     PTCLDY    67  65  94 CALM      30.06S
ESCANABA       CLOUDY    66  64  94 N3        30.05S
MENOMINEE      CLOUDY    66  63  88 CALM      30.05F
SAWYER-GWINN   MOCLDY    67  65  91 CALM      30.08F
$$
MIZ001>003-009>011-084-050800-
WESTERN UPPER MICHIGAN

CITY           SKY/WX    TMP DP  RH WIND       PRES   REMARKS
IRON MOUNTAIN  MOCLDY    63  61  93 CALM      30.07F FOG
HOUGHTON       CLEAR     62  59  90 SE5       30.06S
COPPER HARBOR    N/A     68  63  84 S5        30.06S
IRONWOOD       CLEAR     70  66  88 SE12G17   30.01S
$$

ABBREVIATIONS USED IN REMARKS
   TC - TEMPERATURE IN CELSIUS
  WCI - WIND CHILL INDEX
   HX - HEAT INDEX
  VSB - VISIBILITY



USA.gov is the U.S. government's official web portal to all federal, state and local government web resources and services.